Naples, Italy

8:51 AM CEST on September 23, 2017 (GMT +0200)
Capodichino Mil

Weather History for LIRN - September, 2011

Change the Weather History Date:

Thursday, September 22, 2011

  Actual Average Record
Temperature  
Mean Temperature 74 °F -  
Max Temperature 83 °F 73 °F 82 °F (1999)
Min Temperature 64 °F 55 °F 44 °F (1996)
Cooling Degree Days 8    
Growing Degree Days 24 (Base 50)    
Moisture  
Dew Point 60 °F    
Average Humidity 64    
Maximum Humidity 83    
Minimum Humidity 33    
Precipitation  
Precipitation 0.00 in 0.15 in - ()
Sea Level Pressure  
Sea Level Pressure 29.97 in    
Wind  
Wind Speed 3 mph ()    
Max Wind Speed 9 mph    
Max Gust Speed -    
Visibility 11.8 miles    
Events      
Averages and records for this station are not official NWS values.
T = Trace of Precipitation, MM = Missing Value Source: Averaged Metar Reports

Daily Weather History Graph

Daily Weather History Graph

Search for Another Location

Airport or City:

Trip Planner

Search our weather history database for the weather conditions in past years. The results will help you decide how hot, cold, wet, or windy it might be!

Date:

Astronomy

Sep. 22, 2011 Rise Set
Actual Time 6:49 AM CEST 7:00 PM CEST
Civil Twilight 6:22 AM CEST 7:28 PM CEST
Nautical Twilight 5:50 AM CEST 8:00 PM CEST
Astronomical Twilight 5:17 AM CEST 8:32 PM CEST
Moon 12:50 AM CEST (9/22) 3:43 PM CEST (9/22)
Length of Visible Light 13h 05m
Length of Day
12h 11m
Waning Crescent, 31% of the Moon is Illuminated
Sep 22
Waning Crescent
Sep 27
New
Oct 4
First Quarter
Oct 12
Full
Oct 20
Last Quarter

Hourly Weather History & Observations

Time (CEST) Temp. Heat Index Dew Point Humidity Pressure Visibility Wind Dir Wind Speed Gust Speed Precip Events Conditions
12:20 AM 68.0 °F - 59.0 °F 73% 30.01 in - Calm Calm - N/A   Clear
12:50 AM 66.2 °F - 57.2 °F 73% 30.01 in - Variable 1.2 mph - N/A   Clear
1:20 AM 66.2 °F - 57.2 °F 73% 29.98 in - North 3.5 mph - N/A   Clear
1:50 AM 68.0 °F - 59.0 °F 73% 29.98 in - North 3.5 mph - N/A   Clear
2:00 AM 67 °F - 58 °F 66% 29.99 in 9 mi NW 3.5 mph - -  
2:20 AM 66.2 °F - 59.0 °F 78% 29.98 in - North 2.3 mph - N/A   Clear
2:50 AM 64.4 °F - 57.2 °F 77% 29.98 in - NNW 3.5 mph - N/A   Clear
3:20 AM 66.2 °F - 59.0 °F 78% 29.98 in - NNW 3.5 mph - N/A   Clear
3:50 AM 64.4 °F - 57.2 °F 77% 29.98 in - NNW 3.5 mph - N/A   Clear
4:20 AM 66.2 °F - 59.0 °F 78% 29.98 in - NNE 4.6 mph - N/A   Clear
4:50 AM 66.2 °F - 57.2 °F 73% 29.98 in - NNW 4.6 mph - N/A   Clear
5:00 AM 66 °F - 58 °F 69% 29.99 in 9 mi NNE 3.5 mph - -  
5:20 AM 64.4 °F - 57.2 °F 77% 29.98 in - NNW 2.3 mph - N/A   Clear
5:50 AM 64.4 °F - 57.2 °F 77% 29.98 in - NNW 3.5 mph - N/A   Clear
6:20 AM 64.4 °F - 57.2 °F 77% 29.98 in - North 2.3 mph - N/A   Clear
6:50 AM 64.4 °F - 57.2 °F 77% 29.98 in - ENE 3.5 mph - N/A   Clear
7:20 AM 66.2 °F - 59.0 °F 78% 29.98 in - NNW 3.5 mph - N/A   Clear
7:50 AM 68.0 °F - 59.0 °F 73% 29.98 in - North 3.5 mph - N/A   Clear
8:20 AM 69.8 °F - 59.0 °F 68% 29.98 in - NNE 3.5 mph - N/A   Clear
8:50 AM 71.6 °F - 59.0 °F 64% 29.98 in - North 3.5 mph - N/A   Clear
9:20 AM 73.4 °F - 59.0 °F 61% 30.01 in - NE 4.6 mph - N/A   Clear
9:50 AM 73.4 °F - 59.0 °F 61% 30.01 in - NE 3.5 mph - N/A   Clear
10:20 AM 75.2 °F - 57.2 °F 53% 30.01 in - Variable 3.5 mph - N/A   Clear
10:50 AM 78.8 °F - 57.2 °F 47% 29.98 in - East 3.5 mph - N/A   Clear
11:00 AM 79 °F - 56 °F 34% 29.99 in 19 mi NE 2.3 mph - -  
11:20 AM 78.8 °F - 55.4 °F 44% 29.98 in - ENE 3.5 mph - N/A   Clear
11:50 AM 82.4 °F 81.7 °F 55.4 °F 39% 29.98 in - Variable 3.5 mph - N/A   Clear
12:20 PM 80.6 °F 80.5 °F 55.4 °F 42% 29.98 in - Variable 3.5 mph - N/A   Clear
12:50 PM 82.4 °F 82.0 °F 57.2 °F 42% 29.98 in - Variable 6.9 mph - N/A   Clear
1:20 PM 80.6 °F 80.8 °F 57.2 °F 45% 29.95 in - South 6.9 mph - N/A   Clear
1:50 PM 82.4 °F 82.0 °F 57.2 °F 42% 29.95 in - South 6.9 mph - N/A   Clear
2:00 PM 82 °F - 57 °F 33% 29.95 in 25 mi South 6.9 mph - -   Clear
2:20 PM 80.6 °F 80.8 °F 57.2 °F 45% 29.95 in - South 8.1 mph - N/A   Clear
2:50 PM 82.4 °F 82.5 °F 59.0 °F 45% 29.95 in - South 8.1 mph - N/A   Clear
3:20 PM 82.4 °F 83.4 °F 62.6 °F 51% 29.95 in - South 8.1 mph - N/A   Clear
3:50 PM 82.4 °F 82.9 °F 60.8 °F 48% 29.95 in - Variable 4.6 mph - N/A   Clear
4:20 PM 80.6 °F 81.8 °F 62.6 °F 54% 29.95 in - WNW 9.2 mph - N/A   Clear
4:50 PM 78.8 °F - 62.6 °F 57% 29.95 in - West 8.1 mph - N/A   Clear
5:00 PM 80 °F - 62 °F 43% 29.94 in 25 mi WNW 6.9 mph - -   Clear
5:20 PM 80.6 °F 81.5 °F 60.8 °F 51% 29.95 in - West 5.8 mph - N/A   Clear
5:50 PM 78.8 °F - 60.8 °F 54% 29.95 in - NW 8.1 mph - N/A   Clear
6:20 PM 78.8 °F - 62.6 °F 57% 29.95 in - WNW 5.8 mph - N/A   Clear
6:50 PM 77.0 °F - 62.6 °F 61% 29.95 in - NW 5.8 mph - N/A   Clear
7:20 PM 75.2 °F - 64.4 °F 69% 29.95 in - NW 5.8 mph - N/A   Clear
7:50 PM 75.2 °F - 66.2 °F 73% 29.95 in - WNW 6.9 mph - N/A   Clear
8:00 PM 74 °F - 66 °F 69% 29.97 in 11 mi WNW 5.8 mph - -  
8:20 PM 73.4 °F - 66.2 °F 78% 29.98 in - NW 5.8 mph - N/A   Clear
8:50 PM 73.4 °F - 66.2 °F 78% 29.98 in - NW 4.6 mph - N/A   Clear
9:20 PM 73.4 °F - 66.2 °F 78% 29.98 in - NNW 3.5 mph - N/A   Clear
9:50 PM 73.4 °F - 66.2 °F 78% 29.98 in - Variable 2.3 mph - N/A   Clear
10:20 PM 73.4 °F - 66.2 °F 78% 29.98 in - Variable 2.3 mph - N/A   Clear
10:50 PM 71.6 °F - 66.2 °F 83% 29.98 in - Variable 2.3 mph - N/A   Clear
11:00 PM 71 °F - 66 °F 78% 29.98 in 11 mi NE 3.5 mph - -  
11:20 PM 71.6 °F - 66.2 °F 83% 29.98 in - ENE 3.5 mph - N/A   Clear
11:50 PM 69.8 °F - 64.4 °F 83% 29.98 in - East 2.3 mph - N/A   Clear